When you browse on this site, cookies collect data to enhance your experience and personalize the content and advertising you see.
Visit our Privacy Policy to learn more. By continuing to use the site, you agree to this use of cookies and data.
  • în România
  • Lista ţărilor
  • Pe 7 zile
  • Temperatura apei
  • Hartă satelitară
  • Meteo pe hartă
  • Widget-uri
  • user-avatar
    Intrare

    Meteo pe oră la Varnetresk

    Astăzi, 16 Iulie, Marţi

    Timp Temperatura Precipitaţii Vânt Presiune Umiditate
    00:00 +4°C° 0 mm 0 m/s 687 mmHg 96%
    01:00 +3°C° 0 mm 0 m/s 687 mmHg 98%
    02:00 +4°C° 0 mm 0 m/s 687 mmHg 98%
    03:00 +5°C° 0 mm 1 m/s 687 mmHg 97%
    04:00 +6°C° 0 mm 1 m/s 687 mmHg 97%
    05:00 +7°C° 0 mm 1 m/s 688 mmHg 95%
    06:00 +7°C° 0 mm 1 m/s 688 mmHg 92%
    07:00 +8°C° 0 mm 1 m/s 688 mmHg 92%
    08:00 +8°C° 0.1 mm 1 m/s 688 mmHg 90%
    09:00 +8°C° 0.1 mm 2 m/s 688 mmHg 87%
    10:00 +8°C° 0.1 mm 2 m/s 688 mmHg 85%
    11:00 +9°C° 0.1 mm 2 m/s 688 mmHg 80%
    12:00 +10°C° 0.1 mm 2 m/s 688 mmHg 75%
    13:00 +10°C° 0 mm 2 m/s 689 mmHg 73%
    14:00 +11°C° 0.1 mm 3 m/s 689 mmHg 70%
    15:00 +11°C° 0.1 mm 3 m/s 689 mmHg 67%
    16:00 +11°C° 0.1 mm 3 m/s 689 mmHg 64%
    17:00 +11°C° 0 mm 3 m/s 689 mmHg 65%
    18:00 +10°C° 0 mm 2 m/s 689 mmHg 65%
    19:00 +10°C° 0 mm 2 m/s 689 mmHg 66%
    20:00 +8°C° 0 mm 2 m/s 688 mmHg 73%
    21:00 +6°C° 0 mm 2 m/s 688 mmHg 81%
    22:00 +6°C° 0 mm 1 m/s 687 mmHg 88%
    23:00 +5°C° 0 mm 1 m/s 687 mmHg 90%

    Mâine, 17 Iulie, Miercuri

    Timp Temperatura Precipitaţii Vânt Presiune Umiditate
    00:00 +4°C° 0 mm 1 m/s 687 mmHg 92%
    01:00 +3°C° 0 mm 1 m/s 687 mmHg 94%
    02:00 +4°C° 0 mm 1 m/s 687 mmHg 94%
    03:00 +3°C° 0 mm 0 m/s 687 mmHg 94%
    04:00 +4°C° 0 mm 0 m/s 687 mmHg 94%
    05:00 +5°C° 0 mm 0 m/s 687 mmHg 88%
    06:00 +7°C° 0 mm 1 m/s 687 mmHg 82%
    07:00 +9°C° 0 mm 1 m/s 687 mmHg 76%
    08:00 +10°C° 0 mm 1 m/s 687 mmHg 70%
    09:00 +11°C° 0 mm 1 m/s 687 mmHg 64%
    10:00 +12°C° 0 mm 1 m/s 687 mmHg 58%
    11:00 +12°C° 0 mm 2 m/s 687 mmHg 54%
    12:00 +13°C° 0 mm 2 m/s 687 mmHg 50%
    13:00 +14°C° 0 mm 2 m/s 687 mmHg 46%
    14:00 +14°C° 0 mm 2 m/s 687 mmHg 46%
    15:00 +14°C° 0 mm 2 m/s 687 mmHg 46%
    16:00 +14°C° 0 mm 2 m/s 687 mmHg 45%
    17:00 +14°C° 0 mm 2 m/s 687 mmHg 49%
    18:00 +13°C° 0 mm 2 m/s 687 mmHg 52%
    19:00 +13°C° 0 mm 2 m/s 686 mmHg 56%
    20:00 +10°C° 0 mm 2 m/s 686 mmHg 66%
    21:00 +8°C° 0 mm 1 m/s 686 mmHg 76%
    22:00 +6°C° 0 mm 1 m/s 685 mmHg 86%
    23:00 +6°C° 0 mm 1 m/s 685 mmHg 86%

    Poimâine, 18 Iulie, Joi

    Timp Temperatura Precipitaţii Vânt Presiune Umiditate
    00:00 +4°C° 0 mm 0 m/s 685 mmHg 87%
    01:00 +4°C° 0 mm 0 m/s 685 mmHg 88%
    02:00 +5°C° 0 mm 0 m/s 685 mmHg 86%
    03:00 +6°C° 0 mm 1 m/s 685 mmHg 84%
    04:00 +7°C° 0 mm 1 m/s 685 mmHg 82%
    05:00 +9°C° 0 mm 1 m/s 685 mmHg 75%
    06:00 +10°C° 0 mm 1 m/s 686 mmHg 69%
    07:00 +12°C° 0 mm 1 m/s 686 mmHg 63%
    08:00 +13°C° 0 mm 2 m/s 686 mmHg 56%
    09:00 +14°C° 0 mm 2 m/s 686 mmHg 50%
    10:00 +15°C° 0 mm 2 m/s 686 mmHg 44%
    11:00 +16°C° 0 mm 3 m/s 686 mmHg 43%
    12:00 +17°C° 0 mm 3 m/s 687 mmHg 42%
    13:00 +18°C° 0 mm 3 m/s 687 mmHg 41%
    14:00 +18°C° 0 mm 3 m/s 687 mmHg 43%
    15:00 +18°C° 0 mm 3 m/s 687 mmHg 45%
    16:00 +18°C° 0 mm 3 m/s 687 mmHg 47%
    17:00 +18°C° 0 mm 3 m/s 687 mmHg 51%
    18:00 +17°C° 0 mm 3 m/s 687 mmHg 55%
    19:00 +17°C° 0 mm 3 m/s 686 mmHg 60%
    20:00 +14°C° 0 mm 3 m/s 686 mmHg 67%
    21:00 +12°C° 0 mm 3 m/s 686 mmHg 75%
    22:00 +11°C° 0 mm 3 m/s 686 mmHg 82%
    23:00 +10°C° 0 mm 3 m/s 686 mmHg 84%

    19 Iulie, Vineri

    Timp Temperatura Precipitaţii Vânt Presiune Umiditate
    00:00 +10°C° 0 mm 3 m/s 686 mmHg 86%
    01:00 +9°C° 0 mm 3 m/s 686 mmHg 88%
    02:00 +9°C° 0 mm 3 m/s 686 mmHg 89%
    03:00 +9°C° 0 mm 3 m/s 686 mmHg 90%
    04:00 +9°C° 0 mm 3 m/s 686 mmHg 91%
    05:00 +10°C° 0 mm 3 m/s 686 mmHg 87%
    06:00 +12°C° 0 mm 4 m/s 687 mmHg 83%
    07:00 +13°C° 0 mm 4 m/s 687 mmHg 79%
    08:00 +14°C° 0 mm 4 m/s 687 mmHg 74%
    09:00 +15°C° 0 mm 4 m/s 687 mmHg 69%
    10:00 +16°C° 0 mm 5 m/s 688 mmHg 64%
    11:00 +17°C° 0 mm 5 m/s 688 mmHg 61%
    12:00 +17°C° 0 mm 6 m/s 688 mmHg 58%
    13:00 +19°C° 0 mm 6 m/s 688 mmHg 55%
    14:00 +19°C° 0 mm 6 m/s 688 mmHg 53%
    15:00 +20°C° 0 mm 6 m/s 688 mmHg 52%
    16:00 +20°C° 0 mm 6 m/s 688 mmHg 50%
    17:00 +20°C° 0.1 mm 6 m/s 688 mmHg 54%
    18:00 +19°C° 0.1 mm 5 m/s 688 mmHg 58%
    19:00 +18°C° 0.1 mm 4 m/s 687 mmHg 63%
    20:00 +17°C° 0.2 mm 4 m/s 687 mmHg 68%
    21:00 +14°C° 0.2 mm 4 m/s 687 mmHg 73%
    22:00 +12°C° 0.2 mm 3 m/s 687 mmHg 79%
    23:00 +12°C° 0 mm 3 m/s 688 mmHg 80%

    20 Iulie, Sâmbătă

    Timp Temperatura Precipitaţii Vânt Presiune Umiditate
    00:00 +11°C° 0 mm 3 m/s 688 mmHg 81%
    01:00 +11°C° 0 mm 3 m/s 688 mmHg 83%
    02:00 +11°C° 0 mm 3 m/s 688 mmHg 83%
    03:00 +12°C° 0 mm 2 m/s 689 mmHg 84%
    04:00 +12°C° 0 mm 2 m/s 689 mmHg 85%
    05:00 +13°C° 0.1 mm 2 m/s 689 mmHg 81%
    06:00 +14°C° 0.1 mm 2 m/s 689 mmHg 76%
    07:00 +16°C° 0.1 mm 2 m/s 690 mmHg 72%
    08:00 +17°C° 0.4 mm 2 m/s 690 mmHg 67%
    09:00 +18°C° 0.4 mm 3 m/s 691 mmHg 62%
    10:00 +19°C° 0.4 mm 3 m/s 691 mmHg 57%
    11:00 +19°C° 0.6 mm 3 m/s 691 mmHg 57%
    12:00 +19°C° 0.6 mm 3 m/s 691 mmHg 57%
    13:00 +19°C° 0.6 mm 3 m/s 691 mmHg 57%
    14:00 +19°C° 1.1 mm 2 m/s 691 mmHg 59%
    15:00 +18°C° 1.1 mm 2 m/s 691 mmHg 61%
    16:00 +19°C° 1.1 mm 1 m/s 691 mmHg 62%
    17:00 +19°C° 0.8 mm 1 m/s 691 mmHg 65%
    18:00 +19°C° 0.8 mm 1 m/s 691 mmHg 68%
    19:00 +18°C° 0.8 mm 1 m/s 691 mmHg 71%
    20:00 +16°C° 0 mm 1 m/s 691 mmHg 75%
    21:00 +14°C° 0 mm 2 m/s 690 mmHg 78%
    22:00 +13°C° 0 mm 2 m/s 690 mmHg 81%
    23:00 +13°C° 0 mm 2 m/s 690 mmHg 82%

    21 Iulie, Duminică

    Timp Temperatura Precipitaţii Vânt Presiune Umiditate
    00:00 +12°C° 0 mm 2 m/s 690 mmHg 82%
    01:00 +12°C° 0 mm 2 m/s 690 mmHg 83%
    02:00 +12°C° 0 mm 2 m/s 690 mmHg 84%
    03:00 +12°C° 0 mm 2 m/s 690 mmHg 84%
    04:00 +11°C° 0 mm 3 m/s 690 mmHg 85%
    05:00 +12°C° 0 mm 3 m/s 690 mmHg 81%
    06:00 +14°C° 0 mm 3 m/s 690 mmHg 77%
    07:00 +16°C° 0 mm 3 m/s 691 mmHg 74%
    08:00 +17°C° 0 mm 4 m/s 691 mmHg 69%
    09:00 +18°C° 0 mm 4 m/s 691 mmHg 64%
    10:00 +19°C° 0 mm 5 m/s 692 mmHg 59%
    11:00 +19°C° 0.2 mm 5 m/s 692 mmHg 58%
    12:00 +20°C° 0.2 mm 5 m/s 692 mmHg 57%
    13:00 +20°C° 0.2 mm 5 m/s 692 mmHg 56%
    14:00 +20°C° 0.7 mm 5 m/s 692 mmHg 57%
    15:00 +20°C° 0.7 mm 5 m/s 692 mmHg 58%
    16:00 +20°C° 0.7 mm 4 m/s 691 mmHg 59%
    17:00 +19°C° 0.7 mm 4 m/s 691 mmHg 64%
    18:00 +18°C° 0.7 mm 3 m/s 691 mmHg 69%
    19:00 +17°C° 0.7 mm 2 m/s 691 mmHg 74%
    20:00 +16°C° 0.2 mm 2 m/s 691 mmHg 76%
    21:00 +14°C° 0.2 mm 3 m/s 691 mmHg 78%
    22:00 +13°C° 0.2 mm 3 m/s 691 mmHg 80%
    23:00 +13°C° 0 mm 3 m/s 691 mmHg 82%
    Arată mai mult